CW9300 Weather Reports


Display with metric or nautical units.
time (UTC)temp
F
wind
direction
speed
MPH
gust
MPH
rain 1hr
in
rain 24hr
in
rain mn
in
humidity
%
barometer
mb
20260505024658 67 176 0.0 0.0 0.00 0.00 0.00 54 1007.8
20260505023630 67 127 1.0 6.0 0.00 0.00 0.00 54 1007.9
20260505022611 68 176 1.0 6.0 0.00 0.00 0.00 53 1007.9
20260505021616 68 161 1.0 3.0 0.00 0.00 0.00 52 1007.7
20260505020607 68 171 1.0 5.0 0.00 0.00 0.00 51 1007.9
20260505015623 69 190 2.0 5.0 0.00 0.00 0.00 50 1007.8
20260505014648 69 155 1.0 2.0 0.00 0.00 0.00 49 1007.9
20260505012517 70 192 1.0 3.0 0.00 0.00 0.00 46 1007.6
20260505005217 71 175 2.0 5.0 0.00 0.00 0.00 44 1007.4
20260505004222 72 248 3.0 6.0 0.00 0.00 0.00 43 1007.4
20260505002012 72 188 3.0 7.0 0.00 0.00 0.00 42 1007.2
20260504235828 73 192 4.0 12.0 0.00 0.00 0.00 41 1007.1
20260504234829 74 200 4.0 13.0 0.00 0.00 0.00 41 1007.0
20260504233755 75 216 6.0 15.0 0.00 0.00 0.00 40 1006.9
20260504232731 75 217 6.0 15.0 0.00 0.00 0.00 39 1006.8
20260504231748 75 186 6.0 14.0 0.00 0.00 0.00 39 1006.7
20260504230729 76 208 7.0 13.0 0.00 0.00 0.00 39 1006.6
20260504225655 76 221 6.0 13.0 0.00 0.00 0.00 39 1006.6
20260504224707 76 217 6.0 16.0 0.00 0.00 0.00 39 1006.5
20260504223720 76 147 7.0 17.0 0.00 0.00 0.00 39 1006.6
20260504222650 76 178 7.0 17.0 0.00 0.00 0.00 38 1006.6
20260504221712 76 188 7.0 13.0 0.00 0.00 0.00 39 1006.6
20260504220646 76 157 6.0 15.0 0.00 0.00 0.00 39 1006.5
20260504215641 75 199 8.0 15.0 0.00 0.00 0.00 38 1006.5
20260504214641 75 194 6.0 15.0 0.00 0.00 0.00 39 1006.6
20260504213658 75 150 6.0 13.0 0.00 0.00 0.00 39 1006.7
20260504212720 75 186 8.0 13.0 0.00 0.00 0.00 37 1006.6
20260504210615 76 173 7.0 15.0 0.00 0.00 0.00 36 1006.6
20260504205605 76 186 6.0 12.0 0.00 0.00 0.00 36 1006.7
20260504204541 76 150 7.0 14.0 0.00 0.00 0.00 35 1006.6
20260504203545 77 161 6.0 15.0 0.00 0.00 0.00 34 1006.7
20260504202552 76 37 6.0 15.0 0.00 0.00 0.00 35 1006.8
20260504201525 76 193 6.0 14.0 0.00 0.00 0.00 35 1006.9
20260504195405 76 185 9.0 20.0 0.00 0.00 0.00 35 1007.1
20260504194429 76 163 9.0 18.0 0.00 0.00 0.00 35 1007.4
20260504193405 76 259 8.0 18.0 0.00 0.00 0.00 34 1007.4
20260504192401 75 174 9.0 17.0 0.00 0.00 0.00 35 1007.5
20260504191340 75 211 7.0 16.0 0.00 0.00 0.00 34 1007.8
20260504190328 75 234 8.0 16.0 0.00 0.00 0.00 33 1007.8
20260504184238 75 208 6.0 15.0 0.00 0.00 0.00 34 1008.0
20260504175819 74 232 6.0 19.0 0.00 0.00 0.00 35 1008.8
20260504173639 73 199 6.0 14.0 0.00 0.00 0.00 37 1009.1
20260504171532 72 223 6.0 16.0 0.00 0.00 0.00 38 1009.3
20260504170525 71 142 6.0 15.0 0.00 0.00 0.00 39 1009.5
20260504160319 69 179 6.0 14.0 0.00 0.00 0.00 41 1010.6
20260504150249 65 186 6.0 13.0 0.00 0.00 0.00 44 1011.4
20260504141310 61 182 3.0 9.0 0.00 0.00 0.00 48 1011.7
20260504140322 60 150 1.0 4.0 0.00 0.00 0.00 51 1012.0
20260504130249 50 265 0.0 1.0 0.00 0.00 0.00 67 1012.5
20260504110320 38 140 0.0 0.0 0.00 0.00 0.00 85 1013.0
20260504100232 37 140 0.0 0.0 0.00 0.00 0.00 85 1013.2
20260504081058 37 140 0.0 0.0 0.00 0.00 0.00 84 1013.5
20260504070109 38 140 0.0 0.0 0.00 0.00 0.00 80 1013.8
20260504050608 43 146 0.0 1.0 0.00 0.00 0.00 72 1014.1
20260504045600 43 153 0.0 0.0 0.00 0.00 0.00 72 1014.1
20260504044603 43 154 0.0 0.0 0.00 0.00 0.00 72 1014.1
20260504043549 44 154 0.0 0.0 0.00 0.00 0.00 72 1014.0
20260504042515 44 150 0.0 0.0 0.00 0.00 0.00 71 1014.0
20260504041501 45 130 0.0 0.0 0.00 0.00 0.00 70 1013.9
20260504040509 45 130 0.0 0.0 0.00 0.00 0.00 69 1014.0
20260504034311 47 142 0.0 0.0 0.00 0.00 0.00 66 1014.0
20260504033312 48 143 0.0 0.0 0.00 0.00 0.00 63 1014.0
20260504032316 48 143 0.0 0.0 0.00 0.00 0.00 61 1014.0
20260504031312 49 143 1.0 3.0 0.00 0.00 0.00 58 1013.8
20260504030308 49 134 0.0 3.0 0.00 0.00 0.00 59 1013.8
20260504025327 49 66 0.0 3.0 0.00 0.00 0.00 57 1013.9